Location: ???????
(54.6339°N, 39.4245°E)
Time: 18:10:49
(UTC+00:00)

Cosmos 44 Rocket - Pass Details

Date: 19 May 2025
Orbit: 651 x 728 km, 65.1° (Epoch: 21 June)

Event Time Altitude Azimuth Distance (km) Brightness Sun altitude
Rises 21:16:50 0° 312° (NW) 3,007 7.2 -15.4°
Reaches altitude 10° 21:19:12 10° 318° (NW) 2,101 6.5 -15.4°
Maximum altitude 21:23:50 48° 34° (NNE) 886 4.2 -15.4°
Drops below altitude 10° 21:28:33 10° 109° (ESE) 2,139 5.6 -15.4°
Sets 21:30:58 0° 115° (ESE) 3,067 6.4 -15.4°
